THOR ABLESTAR DEB

Satellite information

Favourite Embed

Satellite Type and Status

DEBRISIN ORBIT

Key statistics

Satellite THOR ABLESTAR DEB at a glance.

Uptime

23544

Days in orbit

Revolutions

≈ 14.0

Per day

Orbit

LEO

Low Earth Orbit

Inclination

66.7

Latest

Satellite identification and parameters

Extended collection of information and parameters for THOR ABLESTAR DEB.

Object identification

Identified? True

Debris? True

Object name: THOR ABLESTAR DEB

International designator: 1961-015KE

Object number (NORAD): 5826

Object ID (CCSDS): 5826

Country: UNITED STATES OF AMERICA (US)

Current information (Y/N): Y

RCS size: SMALL

Orbital parameters

Period: 103.054 minutes

Inclination: 66.6808 deg

SMA: 7281.21 km

Apoapsis: 954.88 km

Periapsis: 851.27 km

RAAN: 53.6123 deg

Eccentricy: 0.00711486

Argument of periapsis: 22.1312 deg

Mean anomaly: 338.2814 deg

Mean motion: 13.97325038 rev/day

Mean motion (dot): 0.00000677 rev/day2

B* drag term: 0.00052695458 1/REarth

Two-line elements (TLE)

Creation date: Dec. 14, 2025, 3:07 a.m.

Reference frame: TEME

Reference center: EARTH

Epoch: Dec. 13, 2025, 2:10 p.m. UTC

TLE line 0: 0 THOR ABLESTAR DEB

TLE line 1: 1 05826U 61015KE 25347.59058795 .00000677 00000-0 52695-3 0 9993

TLE line 2: 2 05826 66.6808 53.6123 0071149 22.1312 338.2814 13.97325038244796

Live tracking on map

Real-time ground track for satellite THOR ABLESTAR DEB.

In-orbit conjunctions

A list of the most updated potential collisions computed for object THOR ABLESTAR DEB.

Target Orbit TCA Probability of collision Miss distance Type
CZ-4C DEB SSO 2025-12-01 20:26:16 0.0001305049 107.0 (m) DEBRIS
FENGYUN 1C DEB SSO 2025-04-21 21:45:50 0.0003756434 196.0 (m) DEBRIS

Associated space launch

THOR ABLESTAR DEB was lifted into orbit during the mission ‘Thor DM-21 Ablestar | Transit 4A & Injun-1 & Solrad 3’, on board a Thor DM-21 Ablestar space rocket.

The launch took place on June 29, 1961, 4:23 a.m. from Space Launch Complex 17B.

For more information about the launch, click the button.

Launch to space Thor DM-21 Ablestar | Transit 4A & Injun-1 & Solrad 3
Thor DM-21 Ablestar | Transit 4A & Injun-1 & Solrad 3

Agency: N/A

Status: Launch Successful

Launch date: June 29, 1961, 4:23 a.m. UTC

Rocket: Thor DM-21 Ablestar

Launch pad: Space Launch Complex 17B

Location: Cape Canaveral SFS, FL, USA

...

Latest news about this satellite

There are no fresh news available about this satellite. Check back as we update our databases every day.


Newsletter sign-up

Weekly statistics, charts and insights to help you stay on top of the space industry.